This is the latest recevied weather packets stored in our database for station/object OK2ZAW-23. If no packets are shown the sender has not sent any weather packets the latest 10 day(s).
| Time | Temp. | Humidity | Pressure | Rain* | Wind** | Luminosity | Snow |
|---|---|---|---|---|---|---|---|
| 1777358581 | 10° C | 54% | 1018.1 hPa | - | - | 335 W/m² | - |
| 1777358268 | 9.44° C | 50% | 1018.2 hPa | - | - | 335 W/m² | - |
| 1777357955 | 9.44° C | 57% | 1018.2 hPa | - | - | 335 W/m² | - |
| 1777357642 | 8.89° C | 64% | 1018.2 hPa | - | - | 335 W/m² | - |
| 1777357328 | 8.33° C | 65% | 1018.2 hPa | - | - | 335 W/m² | - |
| 1777357015 | 7.78° C | 64% | 1018.2 hPa | - | - | 335 W/m² | - |
| 1777356701 | 7.78° C | 65% | 1018.2 hPa | - | - | 335 W/m² | - |
| 1777356389 | 7.22° C | 66% | 1018.1 hPa | - | - | 335 W/m² | - |
| 1777355762 | 6.67° C | 66% | 1018.2 hPa | - | - | 335 W/m² | - |
| 1777355450 | 6.11° C | 67% | 1018.2 hPa | - | - | 335 W/m² | - |
| 1777355137 | 6.11° C | 68% | 1018.2 hPa | - | - | 335 W/m² | - |
| 1777354824 | 5.56° C | 69% | 1018.1 hPa | - | - | 335 W/m² | - |
| 1777354510 | 5° C | 69% | 1018.1 hPa | - | - | 335 W/m² | - |
| 1777354198 | 5° C | 70% | 1018.1 hPa | - | - | 335 W/m² | - |
| 1777353885 | 4.44° C | 70% | 1018.1 hPa | - | - | 335 W/m² | - |
| 1777353572 | 3.89° C | 70% | 1018.1 hPa | - | - | 335 W/m² | - |
| 1777352946 | 3.33° C | 71% | 1018 hPa | - | - | 335 W/m² | - |
| 1777352321 | 3.33° C | 73% | 1018 hPa | - | - | 335 W/m² | - |
| 1777352008 | 2.78° C | 73% | 1017.9 hPa | - | - | 335 W/m² | - |
| 1777351382 | 2.22° C | 74% | 1018 hPa | - | - | 335 W/m² | - |
| 1777350757 | 2.22° C | 74% | 1018 hPa | - | - | 335 W/m² | - |
| 1777350444 | 2.22° C | 74% | 1017.9 hPa | - | - | 335 W/m² | - |
| 1777349819 | 1.67° C | 75% | 1017.9 hPa | - | - | 335 W/m² | - |
| 1777349506 | 1.67° C | 75% | 1017.9 hPa | - | - | 335 W/m² | - |
| 1777348568 | 1.67° C | 75% | 1017.8 hPa | - | - | 335 W/m² | - |
* Rain since midnight (hover to see other rain measurements)
** Current wind speed in m/s (hover to see current wind gust speed)